Location: Olomouc
(49.5830°N, 17.2500°E)
Time: 17:36:10
(UTC+02:00)

ISS - Pass Details

Date: 02 March 2024
Orbit: 410 x 425 km, 51.6° (Epoch: 25 June)

Event Time Altitude Azimuth Distance (km) Brightness Sun altitude
Exits shadow 04:40:40 55° 298° (WNW) 544 -3.5 -18.6°
Maximum altitude 04:41:22 81° 15° (NNE) 458 -3.7 -18.5°
Drops below altitude 10° 04:44:55 10° 104° (ESE) 1,574 0.2 -18.0°
Sets 04:47:03 0° 105° (ESE) 2,444 1.3 -17.6°
